Regional Weather Roundup
Issued by NWS

Home | Current Version | Previous Version | Graphics & Text | Print | Product List | Glossary On
Versions: 1 2 3 4 5 6 7 8 9 10 11 12 13 14 15 16 17 18 19 20 21 22 23 24 25 26 27 28 29 30 31 32 33 34 35 36 37 38 39 40 41 42 43 44 45 46 47 48 49 50
701
ASUS45 KABQ 241501
RWRNM
NEW MEXICO REGIONAL WEATHER ROUNDUP
NATIONAL WEATHER SERVICE ALBUQUERQUE NM
800 AM MST FRI NOV 24 2017

NOTE: "FAIR" MEANS FEW OR NO CLOUDS BELOW 12,000 FEET AGL WITH NO
       SIGNIFICANT WEATHER OR OBSTRUCTIONS TO VISION.

      THIS PRODUCT IS RELEASED AS TWO VERSIONS.  ONE VERSION NEAR
      THE TOP OF THE HOUR CONTAINING PRELIMINARY DATA FROM ALBUQUERQUE
      AND OTHER STATIONS.  A FINAL VERSION WITH ADDITIONAL DATA IS
      ISSUED ABOUT 10 MINUTES AFTER THE HOUR.

NMZ501-503-504-510>518-241600-
NORTHWEST PLATEAU/NORTHCENTRAL MOUNTAINS

CITY           SKY/WX    TMP DP  RH WIND       PRES   REMARKS
FARMINGTON     FAIR      32  25  75 E8        30.15R WCI  25
LOS ALAMOS     FAIR      47  24  39 CALM      30.16S
SANTA FE       FAIR      38  28  67 N9        30.12R WCI  31
TAOS           FAIR      25  20  81 N8        30.18S WCI  16
ANGEL FIRE     FAIR      35  21  57 CALM      30.17S

$$
NMZ402-403-502-505>509-241600-
WESTCENTRAL MOUNTAINS/SOUTHWEST MOUNTAINS

CITY           SKY/WX    TMP DP  RH WIND       PRES   REMARKS
GALLUP         FAIR      29  18  63 E3        30.20R
GRANTS         FAIR      27  19  72 NW14      30.20S WCI  16
SILVER CITY    FAIR      48  25  41 NW13      30.14F

$$
NMZ407-409-411-412-241600-
SOUTHERN DESERTS

CITY           SKY/WX    TMP DP  RH WIND       PRES   REMARKS
DEMING         FAIR      44  25  47 SW6       30.12R
LAS CRUCES     FAIR      47  25  42 CALM      30.11R
ALAMOGORDO     FAIR      46  27  46 CALM      30.10R
T OR C         FAIR      48  24  39 NE6       30.10S

$$
NMZ519>523-241600-
CENTRAL VALLEYS/CENTRAL HIGHLANDS

CITY           SKY/WX    TMP DP  RH WIND       PRES   REMARKS
ALBUQUERQUE    FAIR      38  27  64 SE6       30.13S WCI  33
DOUBLE EAGLE   MOSUNNY  N/A N/A N/A CALM      30.14R
MORIARTY ARPT  FAIR      31  23  72 CALM      30.14R
CLINES CORNERS FAIR      43  25  49 NW17      30.12R
BELEN          FAIR      38  26  63 CALM      30.14R
SOCORRO        FAIR      40  26  57 CALM      30.12R

$$
NMZ524>526-539-540-241600-
SOUTHCENTRAL MOUNTAINS

CITY           SKY/WX    TMP DP  RH WIND       PRES   REMARKS
RUIDOSO        FAIR      50  25  37 W8        30.16R

$$
NMZ527>531-241600-
NORTHEAST HIGHLANDS/NORTHEAST PLAINS

CITY           SKY/WX    TMP DP  RH WIND       PRES   REMARKS
LAS VEGAS      FAIR      47  18  31 W5        30.04S
RATON          FAIR      39  23  52 N8        30.00R WCI  33
CLAYTON        FAIR      55  24  30 W8        29.87S

$$
NMZ532>537-241600-
EASTCENTRAL PLAINS

CITY           SKY/WX    TMP DP  RH WIND       PRES   REMARKS
SANTA ROSA     FAIR      59  27  29 NW8       29.96R
TUCUMCARI      FAIR      56  31  38 W8        29.87R
CANNON AFB     FAIR      53  29  40 W16       29.92S
CLOVIS AIRPORT FAIR      54  30  40 W15       29.92R

$$
NMZ028-029-538-241600-
SOUTHEAST PLAINS

CITY           SKY/WX    TMP DP  RH WIND       PRES   REMARKS
ROSWELL        FAIR      44  30  57 CALM      29.96R
ARTESIA        FAIR      55  30  38 SW5       29.97S
CARLSBAD       FAIR      47  35  63 CALM      29.95F
HOBBS          SUNNY     54  32  43 SW3       29.96S


$$




USA.gov is the U.S. government's official web portal to all federal, state and local government web resources and services.